[[{"header":{"parameterUnit":"m.s-1","parameterCategory":1,"la1":30.2991,"la2":30.254,"lo1":-89.0895,"lo2":-89.0444,"dy":0.0017,"dx":0.0017,"nx":28,"ny":28,"refTime":"2024-08-17T21:00:00:Z","depth":0,"parameterNumber":2,"parameterNumberName":"U-component_of_WINDS"},"data":[0,0,0,0,0,0,0,0,0,0,0,0,0,0,0,0,0,0,0,0,0,0,0,0,0,0,0,0,0,0,0,0,0,0,0,0,0,0,0,0,0,0,0,0,0,0,0,0,0,0,0,0,0,0,0,0,0,0,4.8468,4.8469,0,4.8629,4.8631,4.8633,4.855,4.8546,4.8541,4.8537,4.871,4.8718,4.8727,0,0,0,0,0,0,0,0,0,0,0,0,0,4.8094,4.8101,4.8467,4.8469,4.8471,4.8629,4.8631,4.8633,4.8551,4.8545,4.854,4.8535,4.8707,4.8717,4.8727,0,0,0,0,0,0,0,0,0,0,0,0,0,4.8256,4.8103,4.8467,4.8449,4.8449,4.8628,4.8631,4.8634,4.8552,4.8545,4.8539,4.8533,4.8704,4.8716,4.8729,4.8937,0,0,4.8768,4.8774,0,0,0,0,0,0,0,0,4.8247,4.827,4.845,4.8451,4.8451,4.8563,4.8562,4.8736,4.8553,4.8513,4.8537,4.853,4.8666,4.8682,4.8727,4.8945,4.8953,4.8769,4.8777,4.8783,4.8786,0,0,0,0,0,0,0,4.8236,4.8262,4.8532,4.8452,4.8453,4.8435,4.8451,4.8595,4.8624,4.8516,4.851,4.853,4.8666,4.8714,4.873,4.8955,4.8769,4.878,4.8788,4.8793,4.9354,4.9361,0,0,0,0,0,0,4.8224,4.8254,4.8526,4.8536,4.8331,4.8447,4.8465,4.8533,4.8622,4.8629,4.8536,4.8526,4.8696,4.8715,4.8736,4.8986,4.8783,4.8795,4.8802,4.9347,4.9355,4.9363,0,0,0,0,0,0,4.8217,4.825,4.852,4.8394,4.8426,4.846,4.8538,4.854,4.8588,4.8637,4.8642,4.858,4.8691,4.8718,4.8887,4.899,4.88,4.8812,4.9338,4.9349,4.9359,4.9487,0,0,0,0,0,0,4.8206,4.8247,4.8325,4.8396,4.8433,4.8667,4.8544,4.8548,4.861,4.8599,4.868,4.8687,4.8688,4.8869,4.89,4.9005,4.8822,4.9329,4.9343,4.9356,4.9474,4.9501,4.9524,0,0,0,0,0,4.8193,4.8356,4.833,4.8363,4.8531,4.8673,4.8695,4.8691,4.8619,4.8699,4.873,4.8685,4.8974,4.8887,4.8922,4.9032,4.9323,4.9339,4.9355,4.9463,4.9496,4.9523,0,0,0,0,0,0,4.8299,4.8365,4.8336,4.8526,4.8595,4.8659,4.8759,4.8726,4.8818,4.8804,4.8797,4.8816,4.8992,4.9029,4.893,4.9238,4.9138,4.9162,4.9208,4.9239,4.9264,4.9251,4.8833,0,0,0,0,0,4.8344,4.8452,4.8504,4.8667,4.8703,4.8725,4.8787,4.8778,4.8849,4.8878,4.8922,4.8995,4.9102,4.9173,4.9274,4.9479,4.9496,4.9572,4.9597,4.9617,4.9638,4.975,4.9784,4.9416,4.9416,4.9416,0,0,4.8439,4.8489,4.8557,4.869,4.8741,4.8855,4.875,4.8875,4.8959,4.8898,4.906,4.9095,4.9176,4.9364,4.9449,4.94,4.9744,4.9638,4.9654,4.9664,4.977,4.9804,4.9835,4.9427,4.9425,4.9423,0,0,4.867,4.8718,4.8858,4.8912,4.8991,4.9005,4.9039,4.9109,4.9129,4.9291,4.9247,4.9349,4.9534,4.9593,4.9647,4.9901,4.9863,4.9935,5.0066,5.0175,5.0204,5.0229,5.032,5.0352,4.9956,4.9956,4.9956,0,4.8779,4.8945,4.8936,4.9063,4.9123,4.9071,4.9215,4.9268,4.9377,4.9421,4.9364,4.9595,4.9646,4.9847,4.9909,4.9955,4.9994,4.9925,5.02,5.0225,5.0249,5.0336,5.037,4.9964,4.9963,4.9962,4.9961,0,4.9075,4.9192,4.9296,4.94,4.9472,4.9608,4.962,4.9695,4.968,4.9701,4.9868,4.9927,5.0039,5.0086,5.0074,5.0287,5.0254,5.0199,5.0097,5.0293,5.0373,5.0406,4.9976,4.9973,4.997,4.9968,0,0,4.9376,4.9473,4.9511,4.9558,4.9641,4.9732,4.9866,4.9974,5.0038,5.0116,5.0228,5.0386,5.0336,5.0398,5.0392,5.0487,5.0685,5.0421,5.0422,5.0467,5.0923,5.0963,5.1001,5.066,5.0666,5.0671,5.0916,0,4.9612,4.9843,4.9838,5.0054,5.0162,5.0114,5.0231,5.0296,5.0319,5.0416,5.0443,5.0554,5.0479,5.0516,5.0608,5.0641,5.0776,5.0623,5.0766,5.0771,5.0746,5.1043,5.1086,5.1314,5.0947,5.0953,5.0957,0,4.9918,5.0003,5.0228,5.0295,5.0341,5.0445,5.0544,5.0636,5.071,5.072,5.079,5.0769,5.0907,5.0802,5.0992,5.0888,5.0947,5.0972,5.0981,5.0994,5.0875,5.1064,5.1386,5.142,5.1006,5.1002,5.0999,0,5.0114,5.0286,5.0442,5.0484,5.0567,5.0641,5.068,5.0746,5.0812,5.0899,5.0941,5.1045,5.1101,5.1183,5.1191,5.1114,5.1383,5.1279,5.1397,5.1397,5.1455,5.1451,5.1791,5.1494,5.1493,5.1493,5.1492,0,5.0378,5.0517,5.0531,5.0628,5.0784,5.0779,5.0933,5.0965,5.1026,5.1129,5.1095,5.1193,5.1199,5.13,5.1308,5.1465,5.1491,5.1504,5.1505,5.1507,5.1505,5.1545,5.1529,5.1502,5.15,5.1498,5.1497,0,5.0623,5.0638,5.0806,5.087,5.0889,5.1001,5.1057,5.115,5.117,5.1301,5.1332,5.1365,5.1482,5.1499,5.1637,5.1642,5.183,5.1815,5.1805,5.1802,5.1919,5.1907,5.2296,5.2346,5.2017,5.202,5.2023,0,5.079,5.0896,5.0971,5.1036,5.1078,5.1185,5.125,5.125,5.1321,5.1412,5.1495,5.1608,5.1699,5.189,5.1927,5.2033,5.2019,5.2148,5.2035,5.2034,5.2021,5.2014,5.2024,5.217,5.2173,5.2176,5.2178,0,5.1084,5.1086,5.118,5.1279,5.1358,5.1435,5.1509,5.1565,5.1575,5.1656,5.1774,5.1845,5.1985,5.2099,5.2203,5.2245,5.2215,5.2214,5.2246,5.225,5.2239,5.2246,5.1863,5.2205,5.2202,5.22,5.2199,5.2198,5.1295,5.1386,5.1453,5.156,5.1615,5.1684,5.1774,5.1805,5.1903,5.2015,5.2011,5.2141,5.2213,5.235,5.2399,5.2503,5.2461,5.2509,5.2521,5.2532,5.2543,5.2223,5.2522,5.2522,5.2521,5.252,5.252,0,5.1586,5.1627,5.1725,5.1828,5.1912,5.1874,5.1953,5.2027,5.2142,5.221,5.23,5.2437,5.2547,5.2593,5.2701,5.2776,5.2764,5.2804,5.2798,5.2809,5.2575,5.2535,5.2811,5.2811,5.2811,5.2811,5.2811,5.2811,5.1748,5.1901,5.1911,5.2092,5.2132,5.2258,5.2306,5.2371,5.2425,5.2579,5.2669,5.2697,5.2758,5.287,5.297,5.2981,5.3023,5.3069,5.3074,5.2854,5.2825,5.2797,5.2759,5.3078,5.3078,5.3298,5.33,5.3302]},{"header":{"parameterUnit":"m.s-1","parameterCategory":1,"la1":30.2991,"la2":30.254,"lo1":-89.0895,"lo2":-89.0444,"dy":0.0017,"dx":0.0017,"nx":28,"ny":28,"refTime":"2024-08-17T21:00:00:Z","depth":0,"parameterNumber":3,"parameterNumberName":"V-component_of_WINDS"},"data":[0,0,0,0,0,0,0,0,0,0,0,0,0,0,0,0,0,0,0,0,0,0,0,0,0,0,0,0,0,0,0,0,0,0,0,0,0,0,0,0,0,0,0,0,0,0,0,0,0,0,0,0,0,0,0,0,0,0,1.2548,1.2548,0,1.2624,1.2624,1.2625,1.2577,1.2575,1.2572,1.257,1.265,1.2654,1.2658,0,0,0,0,0,0,0,0,0,0,0,0,0,1.2363,1.2366,1.2548,1.2549,1.2549,1.2623,1.2625,1.2626,1.2577,1.2575,1.2572,1.2569,1.2648,1.2653,1.2658,0,0,0,0,0,0,0,0,0,0,0,0,0,1.2441,1.2367,1.2547,1.2534,1.2534,1.2623,1.2625,1.2626,1.2578,1.2575,1.2571,1.2568,1.2647,1.2653,1.2659,1.2766,0,0,1.2679,1.2681,0,0,0,0,0,0,0,0,1.2437,1.2448,1.2535,1.2535,1.2535,1.2587,1.2588,1.2673,1.2579,1.2561,1.257,1.2566,1.2632,1.2639,1.2661,1.277,1.2773,1.2679,1.2683,1.2686,1.2687,0,0,0,0,0,0,0,1.2431,1.2445,1.2578,1.2537,1.2537,1.2525,1.2533,1.2604,1.2615,1.2563,1.2559,1.2569,1.2631,1.2655,1.2662,1.2774,1.2679,1.2685,1.2688,1.2691,1.2976,1.2979,0,0,0,0,0,0,1.2427,1.244,1.2575,1.258,1.2477,1.2531,1.254,1.2574,1.2614,1.2617,1.2572,1.2566,1.2646,1.2655,1.2665,1.2794,1.2686,1.2692,1.2695,1.2972,1.2977,1.2981,0,0,0,0,0,0,1.2423,1.2439,1.2572,1.2509,1.2525,1.2538,1.2577,1.2577,1.2601,1.2621,1.2622,1.2594,1.2644,1.2656,1.2741,1.2796,1.2694,1.27,1.2968,1.2973,1.2979,1.3051,0,0,0,0,0,0,1.2418,1.2438,1.2479,1.2511,1.2529,1.2647,1.258,1.2581,1.2612,1.2606,1.2642,1.2645,1.2642,1.2732,1.2748,1.2803,1.2705,1.2963,1.297,1.2977,1.3044,1.3059,1.3071,0,0,0,0,0,1.2411,1.2496,1.2481,1.2497,1.2579,1.265,1.2661,1.2655,1.2616,1.2657,1.267,1.2644,1.2787,1.2741,1.2758,1.2816,1.2959,1.2968,1.2976,1.3038,1.3056,1.3071,0,0,0,0,0,0,1.2471,1.25,1.2483,1.2581,1.2613,1.2642,1.2693,1.2674,1.2719,1.2711,1.2702,1.2711,1.28,1.2816,1.2765,1.2922,1.2867,1.288,1.2908,1.2925,1.2939,1.2933,1.271,0,0,0,0,0,1.2495,1.2549,1.2572,1.2656,1.2673,1.2681,1.2711,1.2704,1.2738,1.2751,1.277,1.2804,1.2857,1.2892,1.2941,1.3046,1.3054,1.3094,1.3107,1.3118,1.3129,1.3187,1.3205,1.3009,1.3008,1.3008,0,0,1.2546,1.2569,1.2603,1.2668,1.2693,1.275,1.2693,1.2755,1.2798,1.2761,1.2843,1.2858,1.2895,1.2991,1.3034,1.3007,1.3185,1.3129,1.3138,1.3143,1.3197,1.3216,1.3232,1.3014,1.3013,1.3012,0,0,1.2668,1.269,1.2763,1.2788,1.2826,1.283,1.2848,1.288,1.2888,1.297,1.2944,1.2994,1.3085,1.3113,1.3139,1.3273,1.325,1.3289,1.336,1.3416,1.3431,1.3445,1.3493,1.3511,1.33,1.33,1.33,0,1.2726,1.2811,1.2803,1.2868,1.2897,1.2866,1.294,1.2965,1.3018,1.3039,1.3008,1.3122,1.3145,1.3247,1.3279,1.3301,1.3322,1.3285,1.343,1.3443,1.3456,1.3502,1.352,1.3304,1.3304,1.3303,1.3303,0,1.2882,1.2941,1.2995,1.3046,1.3082,1.3151,1.3154,1.3191,1.3181,1.3189,1.3273,1.33,1.3354,1.3378,1.3369,1.3479,1.3461,1.343,1.3375,1.3479,1.3523,1.354,1.3311,1.3309,1.3308,1.3307,0,0,1.3043,1.3088,1.3109,1.3132,1.3171,1.3217,1.3285,1.3338,1.3371,1.3408,1.3465,1.3543,1.3515,1.3545,1.3538,1.3587,1.3692,1.355,1.3551,1.3576,1.3816,1.384,1.386,1.3677,1.3681,1.3683,1.3813,0,1.3168,1.3286,1.3281,1.3392,1.3447,1.3418,1.3478,1.3509,1.3519,1.3567,1.3577,1.3633,1.3591,1.3609,1.3656,1.3669,1.374,1.366,1.3731,1.3734,1.3724,1.3883,1.3908,1.4029,1.383,1.3833,1.3835,0,1.3329,1.3371,1.3488,1.352,1.3543,1.3596,1.3645,1.3692,1.3727,1.373,1.3764,1.375,1.3819,1.3762,1.3858,1.3804,1.3833,1.3844,1.3848,1.3855,1.3791,1.3895,1.4068,1.4087,1.3861,1.3859,1.3857,0,1.3436,1.3522,1.3603,1.3624,1.3663,1.3701,1.3719,1.3751,1.3783,1.3826,1.3847,1.3898,1.3926,1.3965,1.3965,1.3924,1.4063,1.4006,1.4069,1.4069,1.41,1.4098,1.4281,1.4118,1.4117,1.4117,1.4117,0,1.3576,1.3649,1.3652,1.3702,1.3783,1.3776,1.3857,1.3871,1.3899,1.3952,1.393,1.398,1.3977,1.4028,1.4029,1.4109,1.4122,1.4127,1.4126,1.413,1.4129,1.4149,1.4141,1.4122,1.4121,1.412,1.4119,0,1.3709,1.3714,1.3801,1.3831,1.384,1.3898,1.3924,1.3972,1.3979,1.4047,1.4062,1.4074,1.4133,1.4137,1.4205,1.4206,1.4303,1.4293,1.4292,1.429,1.4353,1.4347,1.4556,1.4583,1.4401,1.4403,1.4404,0,1.3798,1.3854,1.389,1.3923,1.3944,1.3998,1.4031,1.4027,1.4063,1.4107,1.415,1.4207,1.4252,1.4348,1.4363,1.4415,1.4406,1.4476,1.4414,1.4416,1.4408,1.4405,1.4411,1.4488,1.449,1.4492,1.4493,0,1.3957,1.3957,1.4005,1.4055,1.4095,1.4134,1.4171,1.42,1.42,1.4241,1.4301,1.4336,1.4406,1.4463,1.4514,1.4533,1.4514,1.4512,1.453,1.4534,1.4531,1.4534,1.4325,1.4507,1.4506,1.4505,1.4504,1.4504,1.4071,1.4119,1.4152,1.4207,1.4234,1.4269,1.4316,1.4329,1.4379,1.4435,1.443,1.4497,1.4531,1.4597,1.4621,1.4673,1.465,1.4675,1.4681,1.4688,1.4695,1.4522,1.4682,1.4682,1.4681,1.4681,1.4681,0,1.4229,1.4249,1.4299,1.4351,1.4395,1.4372,1.4412,1.445,1.4509,1.4542,1.4587,1.4656,1.4712,1.4731,1.4785,1.4824,1.4816,1.4838,1.4836,1.484,1.4712,1.4692,1.4843,1.4843,1.4843,1.4843,1.4843,1.4843,1.4316,1.4397,1.4401,1.4495,1.4514,1.4579,1.4604,1.4636,1.4663,1.4741,1.4787,1.4799,1.4828,1.4883,1.4933,1.4938,1.4959,1.4985,1.4986,1.4866,1.4849,1.4834,1.4815,1.4989,1.499,1.511,1.5111,1.5112]}]]